[[{"header":{"parameterUnit":"m.s-1","parameterCategory":1,"la1":30.2991,"la2":30.254,"lo1":-89.0895,"lo2":-89.0444,"dy":0.0017,"dx":0.0017,"nx":28,"ny":28,"refTime":"2024-02-18T09:00:00:Z","depth":0,"parameterNumber":2,"parameterNumberName":"U-component_of_WINDS"},"data":[0,0,0,0,0,0,0,0,0,0,0,0,0,0,0,0,0,0,0,0,0,0,0,0,0,0,0,0,0,0,0,0,0,0,0,0,0,0,0,0,0,0,0,0,0,0,0,0,0,0,0,0,0,0,0,0,0,0,-1.1371,-1.1372,0,-1.145,-1.1451,-1.1451,-1.1389,-1.1386,-1.1384,-1.1381,-1.1463,-1.1468,-1.1472,0,0,0,0,0,0,0,0,0,0,0,0,0,-1.1169,-1.1173,-1.1371,-1.1372,-1.1373,-1.1449,-1.1451,-1.1452,-1.1389,-1.1386,-1.1383,-1.138,-1.1462,-1.1467,-1.1473,0,0,0,0,0,0,0,0,0,0,0,0,0,-1.1253,-1.1174,-1.1371,-1.1351,-1.135,-1.1449,-1.1451,-1.1452,-1.139,-1.1386,-1.1382,-1.1378,-1.146,-1.1467,-1.1474,-1.1597,0,0,-1.1495,-1.1498,0,0,0,0,0,0,0,0,-1.1248,-1.126,-1.1353,-1.1353,-1.1352,-1.1405,-1.1409,-1.1501,-1.1391,-1.1375,-1.1381,-1.1376,-1.1447,-1.1455,-1.1479,-1.1601,-1.1604,-1.1496,-1.15,-1.1503,-1.1505,0,0,0,0,0,0,0,-1.1242,-1.1257,-1.1402,-1.1355,-1.1354,-1.1339,-1.1346,-1.1426,-1.1433,-1.1376,-1.1372,-1.1382,-1.1446,-1.1472,-1.148,-1.1605,-1.1495,-1.1502,-1.1506,-1.1509,-1.1833,-1.1837,0,0,0,0,0,0,-1.1238,-1.1252,-1.14,-1.1405,-1.1289,-1.1346,-1.1354,-1.1392,-1.1432,-1.1434,-1.1385,-1.1379,-1.1462,-1.1472,-1.1483,-1.1631,-1.1503,-1.1509,-1.1513,-1.1828,-1.1834,-1.1839,0,0,0,0,0,0,-1.1234,-1.1252,-1.1397,-1.1327,-1.1344,-1.1353,-1.1397,-1.1396,-1.1422,-1.1438,-1.1439,-1.141,-1.1459,-1.1473,-1.1569,-1.1633,-1.1512,-1.1519,-1.1823,-1.183,-1.1836,-1.1928,0,0,0,0,0,0,-1.1229,-1.1251,-1.1298,-1.1329,-1.1348,-1.1482,-1.1401,-1.14,-1.1434,-1.1426,-1.1462,-1.1465,-1.1457,-1.1559,-1.1576,-1.164,-1.1524,-1.1818,-1.1826,-1.1834,-1.1919,-1.1936,-1.1951,0,0,0,0,0,-1.1222,-1.1321,-1.1301,-1.1319,-1.1407,-1.1485,-1.1497,-1.1486,-1.1439,-1.1487,-1.1497,-1.1463,-1.1622,-1.1569,-1.1588,-1.1655,-1.1814,-1.1824,-1.1833,-1.1912,-1.1933,-1.1951,0,0,0,0,0,0,-1.1298,-1.1324,-1.1302,-1.1414,-1.1448,-1.1475,-1.1534,-1.1509,-1.1557,-1.1548,-1.1532,-1.1541,-1.1642,-1.1658,-1.1598,-1.1777,-1.1711,-1.1725,-1.1764,-1.1784,-1.18,-1.1796,-1.153,0,0,0,0,0,-1.1327,-1.1388,-1.1408,-1.1505,-1.1523,-1.1526,-1.156,-1.1548,-1.1582,-1.1597,-1.1614,-1.165,-1.1707,-1.1746,-1.18,-1.192,-1.1927,-1.1975,-1.1991,-1.2005,-1.2018,-1.2084,-1.2106,-1.1871,-1.1871,-1.1871,0,0,-1.139,-1.1412,-1.1452,-1.1521,-1.1546,-1.161,-1.1538,-1.1609,-1.1657,-1.1607,-1.17,-1.1714,-1.1752,-1.1861,-1.1909,-1.1877,-1.2084,-1.2017,-1.2028,-1.2034,-1.2096,-1.2118,-1.2138,-1.1878,-1.1877,-1.1876,0,0,-1.1537,-1.1559,-1.1643,-1.1669,-1.1707,-1.1708,-1.1728,-1.1758,-1.1766,-1.1857,-1.1822,-1.1878,-1.1978,-1.2007,-1.2035,-1.2191,-1.2162,-1.2209,-1.2295,-1.2359,-1.2378,-1.2394,-1.2452,-1.2473,-1.2221,-1.2222,-1.2222,0,-1.1611,-1.1705,-1.1689,-1.1763,-1.1795,-1.1751,-1.1837,-1.1863,-1.1917,-1.194,-1.1902,-1.2027,-1.2049,-1.2165,-1.2203,-1.2226,-1.2249,-1.2206,-1.2376,-1.2392,-1.2407,-1.2463,-1.2484,-1.2227,-1.2226,-1.2226,-1.2225,0,-1.1794,-1.1861,-1.1924,-1.1977,-1.2015,-1.2094,-1.2091,-1.2131,-1.2116,-1.2121,-1.2215,-1.224,-1.2299,-1.2325,-1.231,-1.2439,-1.2417,-1.2378,-1.2312,-1.2436,-1.2487,-1.2508,-1.2235,-1.2233,-1.2231,-1.223,0,0,-1.1995,-1.2037,-1.206,-1.2084,-1.2122,-1.2173,-1.225,-1.2307,-1.2343,-1.2381,-1.2446,-1.253,-1.2494,-1.2526,-1.2514,-1.257,-1.2694,-1.2524,-1.2524,-1.2557,-1.2839,-1.2871,-1.2895,-1.2674,-1.2678,-1.2681,-1.2837,0,-1.2146,-1.228,-1.2267,-1.2394,-1.2456,-1.2414,-1.2481,-1.2512,-1.2518,-1.2572,-1.2578,-1.2639,-1.2586,-1.2605,-1.2658,-1.2668,-1.2751,-1.2656,-1.2736,-1.2739,-1.2731,-1.2922,-1.2956,-1.3101,-1.2856,-1.286,-1.2862,0,-1.234,-1.2385,-1.2519,-1.2547,-1.2573,-1.2633,-1.2684,-1.2735,-1.2769,-1.277,-1.2804,-1.2782,-1.286,-1.2789,-1.2897,-1.2833,-1.2864,-1.2873,-1.2879,-1.2889,-1.2811,-1.2939,-1.3147,-1.3171,-1.2893,-1.2891,-1.2889,0,-1.2476,-1.2569,-1.2662,-1.2683,-1.2718,-1.2762,-1.2778,-1.2808,-1.2843,-1.2887,-1.291,-1.2963,-1.2992,-1.3034,-1.3027,-1.2976,-1.3137,-1.3065,-1.3141,-1.3142,-1.318,-1.3178,-1.3399,-1.3195,-1.3195,-1.3194,-1.3194,0,-1.2648,-1.2732,-1.2723,-1.2781,-1.2873,-1.2857,-1.2949,-1.2961,-1.2987,-1.3046,-1.3012,-1.3069,-1.3054,-1.311,-1.3105,-1.3196,-1.3208,-1.3212,-1.321,-1.3217,-1.3217,-1.324,-1.3231,-1.32,-1.3199,-1.3198,-1.3197,0,-1.2817,-1.2814,-1.2913,-1.2937,-1.2945,-1.3013,-1.3034,-1.3088,-1.309,-1.3165,-1.3182,-1.3186,-1.325,-1.3246,-1.3318,-1.3314,-1.3427,-1.3412,-1.3416,-1.3414,-1.3491,-1.3485,-1.3737,-1.377,-1.3542,-1.3544,-1.3546,0,-1.2928,-1.2992,-1.3023,-1.306,-1.308,-1.3139,-1.3175,-1.316,-1.3198,-1.3241,-1.3291,-1.3351,-1.3399,-1.3502,-1.3512,-1.3567,-1.3555,-1.3639,-1.3563,-1.3568,-1.3559,-1.3557,-1.3564,-1.3655,-1.3658,-1.366,-1.3661,0,-1.3127,-1.3122,-1.3174,-1.3226,-1.3269,-1.3309,-1.3346,-1.3378,-1.3367,-1.3412,-1.3476,-1.3513,-1.3586,-1.3647,-1.3699,-1.3716,-1.3689,-1.3684,-1.3706,-1.3715,-1.3716,-1.3719,-1.346,-1.368,-1.3678,-1.3677,-1.3676,-1.3675,-1.3273,-1.3328,-1.3358,-1.3418,-1.3443,-1.3478,-1.353,-1.3539,-1.3592,-1.365,-1.3638,-1.3711,-1.3742,-1.3809,-1.3831,-1.3888,-1.3858,-1.3888,-1.3896,-1.3905,-1.3915,-1.3704,-1.3897,-1.3897,-1.3896,-1.3896,-1.3895,0,-1.3472,-1.3489,-1.3543,-1.3596,-1.3642,-1.3609,-1.3647,-1.3689,-1.3754,-1.3785,-1.3833,-1.3907,-1.3965,-1.3979,-1.4035,-1.4078,-1.4067,-1.4094,-1.4092,-1.4097,-1.3937,-1.3915,-1.4102,-1.4102,-1.4102,-1.4102,-1.4102,-1.4102,-1.3581,-1.3673,-1.3672,-1.3776,-1.3792,-1.3864,-1.3889,-1.3921,-1.3946,-1.403,-1.4079,-1.4086,-1.4111,-1.4169,-1.4221,-1.4223,-1.4247,-1.428,-1.4278,-1.4129,-1.4108,-1.4089,-1.4068,-1.4284,-1.4285,-1.4433,-1.4434,-1.4435]},{"header":{"parameterUnit":"m.s-1","parameterCategory":1,"la1":30.2991,"la2":30.254,"lo1":-89.0895,"lo2":-89.0444,"dy":0.0017,"dx":0.0017,"nx":28,"ny":28,"refTime":"2024-02-18T09:00:00:Z","depth":0,"parameterNumber":3,"parameterNumberName":"V-component_of_WINDS"},"data":[0,0,0,0,0,0,0,0,0,0,0,0,0,0,0,0,0,0,0,0,0,0,0,0,0,0,0,0,0,0,0,0,0,0,0,0,0,0,0,0,0,0,0,0,0,0,0,0,0,0,0,0,0,0,0,0,0,0,-4.4653,-4.4655,0,-4.48,-4.4802,-4.4804,-4.4756,-4.4753,-4.475,-4.4747,-4.4895,-4.4902,-4.4909,0,0,0,0,0,0,0,0,0,0,0,0,0,-4.4329,-4.4335,-4.4653,-4.4655,-4.4657,-4.48,-4.4802,-4.4804,-4.4757,-4.4753,-4.4749,-4.4745,-4.4893,-4.4901,-4.4909,0,0,0,0,0,0,0,0,0,0,0,0,0,-4.4472,-4.4337,-4.4653,-4.4651,-4.4652,-4.48,-4.4802,-4.4805,-4.4757,-4.4753,-4.4748,-4.4744,-4.489,-4.49,-4.4911,-4.5069,0,0,-4.4942,-4.4947,0,0,0,0,0,0,0,0,-4.4464,-4.4484,-4.4649,-4.4651,-4.4653,-4.4755,-4.4742,-4.4893,-4.4759,-4.4717,-4.4747,-4.4741,-4.4852,-4.4865,-4.4903,-4.5076,-4.5082,-4.4943,-4.4949,-4.4954,-4.4957,0,0,0,0,0,0,0,-4.4454,-4.4477,-4.4711,-4.4651,-4.4654,-4.4641,-4.4656,-4.477,-4.4809,-4.4721,-4.4717,-4.4736,-4.4852,-4.4894,-4.4907,-4.5084,-4.4943,-4.4952,-4.4958,-4.4962,-4.5393,-4.5398,0,0,0,0,0,0,-4.4443,-4.4469,-4.4707,-4.4716,-4.4545,-4.4651,-4.4668,-4.4727,-4.4808,-4.4816,-4.4739,-4.4733,-4.4878,-4.4894,-4.4912,-4.5102,-4.4954,-4.4963,-4.4969,-4.5388,-4.5394,-4.54,0,0,0,0,0,0,-4.4437,-4.4465,-4.4701,-4.4592,-4.4621,-4.4662,-4.4728,-4.4732,-4.4773,-4.4822,-4.4829,-4.4775,-4.4875,-4.4897,-4.503,-4.5106,-4.4968,-4.4977,-4.5382,-4.539,-4.5397,-4.5484,0,0,0,0,0,0,-4.4428,-4.4463,-4.4524,-4.4594,-4.4627,-4.4818,-4.4733,-4.4739,-4.4792,-4.4784,-4.4857,-4.4865,-4.4873,-4.5015,-4.504,-4.5118,-4.4986,-4.5375,-4.5385,-4.5394,-4.5474,-4.5493,-4.551,0,0,0,0,0,-4.4416,-4.4543,-4.4528,-4.4557,-4.4705,-4.4823,-4.4841,-4.4849,-4.4798,-4.486,-4.4891,-4.4862,-4.5094,-4.5029,-4.5057,-4.5139,-4.537,-4.5382,-4.5394,-4.5466,-4.549,-4.551,0,0,0,0,0,0,-4.4481,-4.4552,-4.4536,-4.4689,-4.475,-4.4814,-4.4892,-4.4874,-4.4951,-4.4941,-4.4946,-4.4963,-4.51,-4.5132,-4.5059,-4.5296,-4.5224,-4.5242,-4.527,-4.5292,-4.531,-4.5299,-4.4994,0,0,0,0,0,-4.4513,-4.4604,-4.466,-4.479,-4.4821,-4.4852,-4.4903,-4.4904,-4.4967,-4.4993,-4.5034,-4.5096,-4.5182,-4.5239,-4.5321,-4.5478,-4.5493,-4.5548,-4.5566,-4.5581,-4.5596,-4.5681,-4.5706,-4.5438,-4.5438,-4.5438,0,0,-4.458,-4.463,-4.4687,-4.4804,-4.4852,-4.4944,-4.4874,-4.4975,-4.5044,-4.5008,-4.5136,-4.5168,-4.5237,-4.5383,-4.5449,-4.5415,-4.5673,-4.5596,-4.5607,-4.5615,-4.5696,-4.5721,-4.5743,-4.5446,-4.5445,-4.5444,0,0,-4.475,-4.4798,-4.491,-4.4959,-4.5032,-4.5051,-4.5078,-4.5145,-4.5165,-4.5294,-4.5269,-4.535,-4.5499,-4.5549,-4.5594,-4.5782,-4.5758,-4.5809,-4.5902,-4.5985,-4.6006,-4.6024,-4.6091,-4.6115,-4.5824,-4.5824,-4.5824,0,-4.4825,-4.4964,-4.497,-4.5074,-4.5125,-4.5098,-4.5211,-4.5258,-4.5354,-4.539,-4.535,-4.5536,-4.558,-4.5737,-4.5783,-4.582,-4.585,-4.58,-4.6002,-4.6021,-4.6039,-4.6102,-4.6127,-4.583,-4.5829,-4.5828,-4.5828,0,-4.5052,-4.5149,-4.5231,-4.5324,-4.5385,-4.5493,-4.5514,-4.5575,-4.557,-4.5593,-4.5724,-4.5776,-4.5869,-4.5906,-4.5902,-4.6062,-4.6038,-4.6,-4.5928,-4.607,-4.6129,-4.6154,-4.5838,-4.5836,-4.5834,-4.5833,0,0,-4.5268,-4.5362,-4.5392,-4.5434,-4.5512,-4.5587,-4.5692,-4.5783,-4.5835,-4.5901,-4.599,-4.6116,-4.6081,-4.6132,-4.6134,-4.6206,-4.635,-4.6159,-4.6161,-4.6193,-4.6529,-4.6556,-4.6585,-4.6335,-4.634,-4.6343,-4.6523,0,-4.5444,-4.5631,-4.5639,-4.5809,-4.5898,-4.5872,-4.5964,-4.6021,-4.6045,-4.6124,-4.6149,-4.6239,-4.6187,-4.6217,-4.6288,-4.6318,-4.6418,-4.6305,-4.6417,-4.642,-4.64,-4.6616,-4.6646,-4.6813,-4.6546,-4.655,-4.6553,0,-4.5674,-4.5749,-4.5928,-4.5992,-4.6029,-4.6112,-4.6195,-4.6271,-4.6334,-4.6347,-4.6403,-4.6394,-4.6501,-4.6425,-4.6573,-4.6496,-4.6541,-4.6563,-4.657,-4.658,-4.6495,-4.6632,-4.6866,-4.6891,-4.659,-4.6587,-4.6584,0,-4.5813,-4.5958,-4.6083,-4.612,-4.6198,-4.6257,-4.6292,-4.6351,-4.6404,-4.6476,-4.6511,-4.6595,-4.664,-4.6705,-4.6717,-4.6661,-4.6865,-4.679,-4.6877,-4.6877,-4.6921,-4.6918,-4.7166,-4.6951,-4.6951,-4.695,-4.695,0,-4.6009,-4.612,-4.6147,-4.6224,-4.6347,-4.6354,-4.6475,-4.6505,-4.6558,-4.664,-4.6622,-4.6699,-4.6712,-4.6792,-4.6802,-4.6922,-4.6943,-4.6955,-4.6956,-4.6957,-4.6955,-4.6987,-4.6976,-4.6957,-4.6956,-4.6954,-4.6953,0,-4.6185,-4.6208,-4.6343,-4.6406,-4.6424,-4.6512,-4.6564,-4.6638,-4.6659,-4.6763,-4.6788,-4.6822,-4.6915,-4.6934,-4.7044,-4.7051,-4.7193,-4.7183,-4.7172,-4.7171,-4.7257,-4.7248,-4.7533,-4.757,-4.7332,-4.7334,-4.7336,0,-4.6309,-4.6393,-4.6465,-4.6519,-4.6557,-4.6644,-4.6698,-4.6708,-4.6765,-4.6844,-4.6908,-4.6998,-4.7072,-4.7221,-4.7255,-4.7338,-4.733,-4.7424,-4.7342,-4.734,-4.7331,-4.7326,-4.7334,-4.744,-4.7442,-4.7444,-4.7446,0,-4.6526,-4.6532,-4.6612,-4.6696,-4.6761,-4.6827,-4.689,-4.6935,-4.6953,-4.7018,-4.7113,-4.717,-4.7282,-4.7372,-4.7455,-4.749,-4.7472,-4.7471,-4.7496,-4.7497,-4.7487,-4.7493,-4.7214,-4.7465,-4.7463,-4.7462,-4.7461,-4.746,-4.6679,-4.6752,-4.6814,-4.6903,-4.6951,-4.701,-4.7082,-4.7113,-4.7192,-4.7284,-4.7285,-4.7389,-4.7448,-4.7559,-4.7599,-4.7679,-4.7649,-4.7685,-4.7694,-4.7703,-4.771,-4.7474,-4.7694,-4.7694,-4.7693,-4.7693,-4.7692,0,-4.6894,-4.6932,-4.7014,-4.7103,-4.7172,-4.7149,-4.7217,-4.7276,-4.7368,-4.7426,-4.7498,-4.7607,-4.7694,-4.7734,-4.782,-4.7876,-4.787,-4.7898,-4.7894,-4.7902,-4.7732,-4.7702,-4.7902,-4.7902,-4.7902,-4.7902,-4.7902,-4.7902,-4.7015,-4.7138,-4.7151,-4.7297,-4.7334,-4.7436,-4.7477,-4.7531,-4.7577,-4.7699,-4.7772,-4.7797,-4.7848,-4.7937,-4.8015,-4.8025,-4.8057,-4.809,-4.8095,-4.7936,-4.7914,-4.7894,-4.7866,-4.8097,-4.8097,-4.8259,-4.826,-4.8261]}]]